EW5141 Weather Reports


time (UTC)temp
C
wind
direction
speed
KPH
gust
KPH
rain 1hr
cm
rain 24hr
cm
rain mn
cm
humidity
%
barometer
mb
20260506191529 12 355 6.4 22.5 0.00 2.82 1.55 59 1010.9
20260506191029 12 348 8.0 22.5 0.00 2.82 1.55 58 1010.9
20260506190529 12 40 4.8 16.1 0.00 2.82 1.55 60 1011.0
20260506190028 12 5 8.0 17.7 0.00 2.82 1.55 60 1010.7
20260506185532 12 29 8.0 19.3 0.00 2.82 1.55 60 1011.0
20260506185029 12 346 9.7 19.3 0.00 2.82 1.55 62 1010.9
20260506184542 12 17 3.2 16.1 0.00 2.82 1.55 60 1010.6
20260506184027 12 124 6.4 17.7 0.00 2.82 1.55 62 1010.8
20260506183530 12 360 8.0 17.7 0.00 2.82 1.55 62 1010.9
20260506183037 12 258 3.2 11.3 0.00 2.82 1.55 65 1010.9
20260506182526 12 355 1.6 16.1 0.00 2.82 1.55 64 1011.0
20260506182026 11 313 3.2 14.5 0.00 2.82 1.55 65 1011.1
20260506181536 11 342 4.8 14.5 0.00 2.82 1.55 65 1010.9
20260506181028 11 281 6.4 20.9 0.00 2.82 1.55 65 1010.8
20260506180526 11 327 8.0 17.7 0.00 2.82 1.55 63 1010.7
20260506180029 11 18 8.0 17.7 0.00 2.82 1.55 61 1010.6
20260506175523 12 21 8.0 16.1 0.00 2.82 1.55 63 1010.6
20260506175023 12 9 6.4 17.7 0.00 2.82 1.55 62 1010.6
20260506174525 11 16 8.0 20.9 0.00 2.82 1.55 63 1010.6
20260506174022 11 355 9.7 17.7 0.00 2.82 1.55 67 1010.7
20260506173524 11 38 9.7 17.7 0.00 2.82 1.55 64 1010.7
20260506173024 11 19 11.3 17.7 0.00 2.82 1.55 66 1010.8
20260506172522 11 351 9.7 20.9 0.00 2.82 1.55 66 1010.7
20260506172020 11 26 3.2 20.9 0.00 2.82 1.55 68 1010.9
20260506171520 11 34 6.4 17.7 0.00 2.82 1.55 72 1010.9
20260506171019 11 344 12.9 19.3 0.00 2.82 1.55 69 1010.8
20260506170518 11 34 4.8 19.3 0.00 2.82 1.55 71 1010.7
20260506170018 11 344 9.7 19.3 0.00 2.82 1.55 71 1010.8
20260506165519 11 12 12.9 19.3 0.00 2.82 1.55 71 1010.6
20260506165017 11 28 6.4 19.3 0.00 2.82 1.55 75 1010.6
20260506164517 11 348 6.4 16.1 0.00 2.82 1.55 75 1010.7
20260506164016 11 348 6.4 16.1 0.00 2.82 1.55 76 1010.8
20260506163516 11 11 4.8 14.5 0.00 2.82 1.55 77 1010.8
20260506163015 10 33 4.8 14.5 0.00 2.82 1.55 78 1010.8
20260506162516 10 346 8.0 17.7 0.00 2.82 1.55 78 1010.7
20260506162014 10 5 6.4 17.7 0.00 2.82 1.55 78 1010.5
20260506161515 10 342 9.7 17.7 0.00 2.82 1.55 77 1010.5
20260506161013 10 304 6.4 19.3 0.00 2.82 1.55 80 1010.5
20260506160513 10 288 6.4 19.3 0.00 2.82 1.55 80 1010.5
20260506160014 10 355 6.4 16.1 0.00 2.82 1.55 80 1010.3
20260506155511 10 318 6.4 16.1 0.00 2.82 1.55 81 1010.3
20260506155011 10 329 8.0 19.3 0.00 2.82 1.55 81 1010.2
20260506154509 10 18 12.9 22.5 0.00 2.82 1.55 81 1010.2
20260506154009 9 16 8.0 22.5 0.00 2.82 1.55 83 1010.1
20260506153512 9 19 11.3 19.3 0.00 2.82 1.55 82 1010.1
20260506153018 9 15 12.9 19.3 0.00 2.82 1.55 83 1010.0
20260506152508 8 65 11.3 20.9 0.00 2.82 1.55 84 1009.9
20260506152008 8 13 14.5 20.9 0.00 2.82 1.55 85 1009.8
20260506151506 8 346 12.9 19.3 0.00 2.82 1.55 86 1009.7
20260506151004 8 28 9.7 19.3 0.00 2.82 1.55 87 1009.7
20260506150503 8 30 11.3 19.3 0.00 2.82 1.55 88 1009.8
20260506150003 8 23 4.8 16.1 0.00 2.82 1.55 90 1009.8
20260506145502 8 34 8.0 19.3 0.00 2.84 1.55 90 1009.8
20260506145002 8 345 6.4 19.3 0.00 2.84 1.55 90 1009.8
20260506144610 8 11 8.0 17.7 0.00 2.84 1.55 90 1009.7
20260506144059 8 360 8.0 17.7 0.00 2.84 1.55 91 1009.6
20260506143559 7 33 6.4 22.5 0.00 2.84 1.55 91 1009.5
20260506143057 7 342 9.7 22.5 0.00 2.84 1.55 91 1009.4
20260506142555 7 360 8.0 17.7 0.00 2.84 1.55 92 1009.2
20260506142055 7 345 6.4 19.3 0.00 2.84 1.55 92 1009.2
20260506141555 8 13 6.4 22.5 0.00 2.84 1.55 92 1009.2
20260506141055 8 17 6.4 22.5 0.00 2.84 1.55 93 1009.1
20260506140556 8 27 3.2 17.7 0.00 2.84 1.55 93 1008.9
20260506140054 8 13 8.0 17.7 0.00 2.84 1.55 93 1008.9
20260506135552 8 351 8.0 17.7 0.00 2.84 1.55 94 1008.9
20260506135051 8 28 9.7 17.7 0.00 2.84 1.55 94 1008.8
20260506134550 8 338 11.3 16.1 0.00 2.84 1.55 95 1008.7
20260506134053 7 32 9.7 14.5 0.00 2.84 1.55 95 1008.4
20260506133549 7 350 6.4 14.5 0.00 2.84 1.55 96 1008.6
20260506133049 7 28 9.7 16.1 0.00 2.84 1.55 96 1008.6
20260506132551 7 21 9.7 16.1 0.00 2.84 1.55 96 1008.4
20260506132049 7 355 4.8 17.7 0.00 2.84 1.55 96 1008.4
20260506131553 7 32 4.8 17.7 0.00 2.84 1.55 96 1008.4
20260506131047 7 42 6.4 16.1 0.00 2.84 1.55 96 1008.3
20260506130546 7 15 6.4 16.1 0.00 2.84 1.55 96 1008.2
20260506130046 7 30 8.0 16.1 0.00 2.84 1.55 96 1008.1
20260506125548 7 5 8.0 17.7 0.00 2.84 1.55 96 1008.1
20260506125045 7 45 8.0 17.7 0.00 2.84 1.55 96 1008.0
20260506124543 7 44 6.4 14.5 0.00 2.84 1.55 96 1008.1
20260506124044 7 45 6.4 16.1 0.00 2.84 1.55 96 1008.1
20260506123542 7 25 8.0 16.1 0.00 2.84 1.55 96 1008.2
20260506123042 7 19 4.8 14.5 0.00 2.84 1.55 96 1008.1
20260506122542 7 350 6.4 16.1 0.00 2.84 1.55 96 1008.0
20260506122039 7 22 9.7 16.1 0.03 2.84 1.55 96 1008.3
20260506121539 7 329 6.4 14.5 0.03 2.84 1.55 96 1008.3
20260506121141 7 9 6.4 12.9 0.03 2.84 1.55 96 1008.0
20260506120537 7 34 4.8 11.3 0.05 2.84 1.55 96 1007.8
20260506120040 7 37 6.4 12.9 0.05 2.84 1.55 96 1007.2
20260506115536 7 57 4.8 16.1 0.05 2.84 1.55 96 1006.9
20260506115035 7 40 11.3 20.9 0.05 2.84 1.55 96 1006.9
20260506114532 7 16 9.7 20.9 0.05 2.84 1.55 96 1007.1
20260506114031 7 41 8.0 14.5 0.05 2.84 1.55 96 1007.2
20260506113530 7 5 4.8 16.1 0.05 2.84 1.55 96 1007.3
20260506113038 7 36 8.0 16.1 0.05 2.84 1.55 96 1007.3
20260506112529 6 31 9.7 16.1 0.05 2.84 1.55 96 1007.0
20260506112033 6 44 11.3 16.1 0.03 2.84 1.52 96 1007.0
20260506111531 6 14 8.0 14.5 0.03 2.84 1.52 96 1007.5
20260506111027 6 24 6.4 16.1 0.00 2.82 1.50 96 1007.6
20260506110526 6 13 8.0 16.1 0.00 2.82 1.50 96 1007.3
20260506110025 6 22 6.4 14.5 0.00 2.82 1.50 96 1007.1
20260506105525 6 15 6.4 16.1 0.00 2.82 1.50 96 1006.9
20260506105023 6 14 8.0 20.9 0.03 2.82 1.50 96 1006.5
20260506104525 6 36 8.0 20.9 0.03 2.82 1.50 96 1006.5
20260506104022 6 34 9.7 19.3 0.05 2.82 1.50 96 1006.1
20260506103525 6 52 12.9 20.9 0.08 2.82 1.50 96 1005.9
20260506103025 6 49 12.9 24.1 0.08 2.82 1.50 96 1005.7
20260506102523 6 68 16.1 24.1 0.10 2.82 1.50 96 1005.2
20260506102021 6 43 16.1 22.5 0.13 2.82 1.50 96 1005.6
20260506101521 6 62 11.3 20.9 0.13 2.82 1.50 96 1005.5
20260506101020 6 31 12.9 22.5 0.15 2.82 1.50 96 1006.0
20260506100520 6 22 9.7 22.5 0.18 2.82 1.50 96 1006.2
20260506100120 6 34 11.3 22.5 0.20 2.82 1.50 96 1006.2
20260506095520 6 30 14.5 22.5 0.23 2.82 1.50 96 1005.9
20260506095018 6 22 11.3 19.3 0.20 2.79 1.45 96 1005.8
20260506094517 6 36 12.9 19.3 0.20 2.79 1.45 96 1005.9
20260506094016 6 32 9.7 17.7 0.18 2.77 1.42 96 1006.1
20260506093516 6 44 9.7 19.3 0.15 2.74 1.42 96 1006.5
20260506093015 6 11 12.9 19.3 0.15 2.74 1.42 96 1006.5
20260506092514 6 17 11.3 19.3 0.13 2.72 1.40 96 1006.4
20260506092013 6 29 11.3 19.3 0.10 2.69 1.37 96 1006.2
20260506091513 6 32 12.9 22.5 0.10 2.69 1.37 96 1006.1
20260506091012 6 40 11.3 22.5 0.10 2.67 1.35 96 1006.1
20260506090511 6 31 11.3 22.5 0.08 2.64 1.32 96 1006.2
20260506090013 6 38 12.9 22.5 0.08 2.62 1.30 96 1006.3
20260506085609 6 355 12.9 25.7 0.08 2.59 1.27 96 1006.2
20260506085009 6 25 16.1 29.0 0.13 2.59 1.27 96 1006.1
20260506084507 7 360 17.7 29.0 0.18 2.59 1.27 96 1006.0
20260506084009 7 350 16.1 25.7 0.23 2.59 1.27 96 1005.8
20260506083505 7 25 17.7 22.5 0.28 2.59 1.27 96 1005.7
20260506083004 7 22 12.9 22.5 0.33 2.59 1.27 96 1005.6
20260506082503 7 11 12.9 22.5 0.36 2.59 1.27 96 1005.3
20260506082003 7 26 14.5 20.9 0.38 2.59 1.27 96 1005.0
20260506081500 8 30 9.7 17.7 0.41 2.59 1.27 97 1005.0
20260506081100 8 50 9.7 20.9 0.38 2.57 1.24 97 1005.2
20260506080600 8 33 9.7 20.9 0.41 2.57 1.24 97 1005.3
20260506080108 8 31 11.3 17.7 0.41 2.54 1.22 97 1005.3
20260506073056 8 24 9.7 16.1 0.25 2.26 0.94 97 1005.2
20260506072556 8 15 6.4 14.5 0.23 2.24 0.91 97 1005.0
20260506072056 8 33 4.8 16.1 0.23 2.21 0.89 96 1004.9
20260506071603 8 34 9.7 16.1 0.20 2.18 0.86 96 1004.8
20260506071055 8 27 6.4 17.7 0.18 2.16 0.84 96 1004.8
20260506070554 8 56 11.3 19.3 0.18 2.16 0.84 96 1004.6
20260506062046 9 9 8.0 16.1 0.08 1.98 0.66 96 1005.0
20260506061546 9 38 9.7 17.7 0.10 1.98 0.66 96 1005.0
20260506061044 9 28 11.3 16.1 0.10 1.98 0.66 96 1005.2
20260506060543 9 30 8.0 16.1 0.10 1.96 0.64 96 1005.3
20260506051032 10 17 8.0 17.7 0.48 1.88 0.56 95 1005.8
20260506050531 11 21 6.4 20.9 0.51 1.85 0.53 95 1005.8
20260506045027 13 28 8.0 16.1 0.38 1.68 0.36 96 1005.8
20260506044526 13 269 3.2 8.0 0.36 1.65 0.33 96 1005.9
20260506044025 13 263 3.2 11.3 0.33 1.60 0.28 96 1005.9
20260506043529 13 244 3.2 12.9 0.30 1.57 0.25 96 1006.0
20260506043025 13 257 3.2 14.5 0.28 1.52 0.20 96 1006.0
20260506042525 13 209 4.8 14.5 0.28 1.50 0.18 96 1006.0
20260506042026 13 249 4.8 16.1 0.28 1.45 0.15 96 1006.1
20260506041523 13 265 8.0 16.1 0.28 1.42 0.13 96 1006.1
20260506041025 13 260 6.4 16.1 0.23 1.40 0.08 96 1006.1
20260506040521 13 265 8.0 16.1 0.18 1.35 0.03 96 1006.2
20260506040023 13 273 6.4 11.3 0.15 1.32 0.00 96 1006.2
20260506035519 13 269 3.2 8.0 0.18 1.32 1.32 96 1006.2
20260506035020 13 264 1.6 6.4 0.15 1.30 1.30 96 1006.2
20260506034621 13 264 3.2 6.4 0.18 1.30 1.30 96 1006.2
20260506034019 13 264 1.6 9.7 0.15 1.27 1.27 96 1006.2
20260506033518 13 264 3.2 11.3 0.13 1.24 1.24 96 1006.2
20260506033018 13 264 3.2 11.3 0.15 1.24 1.24 96 1006.3
20260506032517 13 252 1.6 4.8 0.13 1.22 1.22 96 1006.3
20260506032017 13 253 1.6 6.4 0.13 1.19 1.19 96 1006.3
20260506031518 13 252 1.6 6.4 0.10 1.17 1.17 96 1006.3
20260506031016 13 252 1.6 6.4 0.13 1.17 1.17 96 1006.4
20260506030516 13 243 1.6 6.4 0.13 1.17 1.17 96 1006.4
20260506030032 13 243 1.6 6.4 0.13 1.17 1.17 96 1006.5
20260506025517 13 261 1.6 9.7 0.13 1.14 1.14 96 1006.6
20260506025019 13 261 1.6 9.7 0.13 1.14 1.14 96 1006.6
20260506024539 13 274 3.2 9.7 0.10 1.12 1.12 96 1006.7
20260506024016 13 279 3.2 12.9 0.13 1.12 1.12 96 1006.6
20260506023517 13 248 4.8 12.9 0.13 1.12 1.12 96 1006.7
20260506023016 13 241 3.2 17.7 0.10 1.09 1.09 96 1006.8
20260506022515 13 262 8.0 17.7 0.10 1.09 1.09 96 1006.9
20260506022015 13 256 4.8 11.3 0.08 1.07 1.07 96 1006.8
20260506021515 13 243 3.2 6.4 0.08 1.07 1.07 96 1006.8
20260506021018 13 243 3.2 8.0 0.05 1.04 1.04 95 1006.8
20260506020515 13 243 3.2 8.0 0.05 1.04 1.04 95 1006.7
20260506020014 13 208 3.2 9.7 0.05 1.04 1.04 95 1006.7
20260506015515 13 252 3.2 8.0 0.03 1.02 1.02 95 1006.6
20260506015014 13 242 3.2 8.0 0.05 1.02 1.02 95 1006.4
20260506014514 13 244 3.2 8.0 0.05 1.02 1.02 95 1006.5
20260506014013 13 244 3.2 6.4 0.03 0.99 0.99 95 1006.4
20260506013513 13 244 1.6 11.3 0.03 0.99 0.99 95 1006.2
20260506013022 13 244 3.2 11.3 0.03 0.99 0.99 95 1006.2
20260506012513 13 240 1.6 11.3 0.05 0.99 0.99 95 1006.2
20260506012013 13 240 3.2 9.7 0.05 0.99 0.99 95 1006.2
20260506011513 13 236 3.2 8.0 0.05 0.99 0.99 95 1006.2
20260506011013 13 232 3.2 8.0 0.05 0.99 0.99 95 1006.1
20260506010513 13 229 3.2 12.9 0.05 0.99 0.99 95 1006.1
20260506010014 13 257 4.8 14.5 0.08 0.99 0.99 95 1006.1
20260506005512 13 245 3.2 14.5 0.08 0.99 0.99 94 1006.2
20260506005011 13 250 4.8 11.3 0.05 0.97 0.97 95 1006.3
20260506004510 13 244 3.2 14.5 0.05 0.97 0.97 94 1006.3
20260506004010 13 257 6.4 14.5 0.08 0.97 0.97 94 1006.3
20260506003510 13 255 8.0 14.5 0.10 0.97 0.97 94 1006.4
20260506003010 13 256 6.4 14.5 0.13 0.97 0.97 94 1006.3
20260506002510 13 275 8.0 14.5 0.18 0.94 0.94 94 1006.3
20260506002010 13 304 4.8 11.3 0.43 0.94 0.94 94 1006.3
20260506001510 13 279 1.6 8.0 0.86 0.94 0.94 94 1006.3
20260506001009 13 279 1.6 8.0 0.89 0.94 0.94 93 1006.3
20260506000509 13 279 3.2 8.0 0.86 0.91 0.91 93 1006.3
20260506000009 13 279 1.6 11.3 0.86 0.91 0.91 93 1006.2
20260505235509 13 301 3.2 6.4 0.86 0.91 0.91 93 1006.2
20260505235008 13 263 3.2 14.5 0.86 0.91 0.91 92 1006.3
20260505234507 13 251 8.0 14.5 0.86 0.91 0.91 92 1006.4
20260505234008 14 277 6.4 14.5 0.84 0.89 0.89 91 1006.5
20260505233505 14 292 6.4 19.3 0.81 0.86 0.86 90 1006.5
20260505233004 14 273 8.0 29.0 0.76 0.81 0.81 89 1006.6
20260505232503 15 271 17.7 41.8 0.69 0.71 0.71 86 1006.7
20260505232003 16 254 22.5 51.5 0.33 0.38 0.38 81 1006.6
20260505231502 18 309 25.7 51.5 0.00 0.05 0.05 70 1006.4
20260505231004 19 254 9.7 25.7 0.00 0.05 0.05 65 1005.6
20260505230501 19 250 6.4 17.7 0.00 0.05 0.05 64 1005.3
20260505230005 19 237 9.7 19.3 0.00 0.05 0.05 64 1005.2
20260505225502 19 242 11.3 30.6 0.00 0.05 0.05 63 1005.3
20260505225002 19 245 9.7 30.6 0.00 0.05 0.05 64 1005.2
20260505224601 19 254 8.0 24.1 0.00 0.05 0.05 64 1005.2
20260505224100 19 221 8.0 24.1 0.00 0.05 0.05 64 1005.3
20260505223600 19 248 11.3 24.1 0.00 0.05 0.05 64 1005.4
20260505223111 19 244 9.7 22.5 0.00 0.05 0.05 65 1005.5
20260505222559 19 255 4.8 17.7 0.00 0.05 0.05 65 1005.5
20260505222100 19 211 6.4 17.7 0.00 0.05 0.05 65 1005.5
20260505221559 19 240 6.4 14.5 0.00 0.05 0.05 65 1005.5
20260505221103 19 251 3.2 16.1 0.00 0.05 0.05 65 1005.6
20260505220602 19 225 4.8 16.1 0.00 0.05 0.05 65 1005.5
20260505220108 19 248 6.4 16.1 0.00 0.05 0.05 65 1005.6
20260505215559 19 242 4.8 16.1 0.00 0.05 0.05 64 1005.5
20260505215058 19 207 6.4 14.5 0.00 0.05 0.05 64 1005.6
20260505214558 19 248 6.4 17.7 0.00 0.05 0.05 64 1005.6
20260505214057 19 252 9.7 17.7 0.00 0.05 0.05 64 1005.6
20260505213602 19 237 11.3 19.3 0.00 0.05 0.05 64 1005.6
20260505213100 19 252 8.0 19.3 0.00 0.05 0.05 64 1005.7
20260505212556 19 259 9.7 22.5 0.00 0.05 0.05 64 1005.6
20260505212056 19 236 9.7 24.1 0.00 0.05 0.05 64 1005.6
20260505211556 19 209 9.7 24.1 0.00 0.05 0.05 64 1005.6
20260505211056 19 239 8.0 22.5 0.00 0.05 0.05 64 1005.7
20260505210556 19 261 9.7 29.0 0.00 0.05 0.05 64 1005.7
20260505210055 19 258 16.1 29.0 0.00 0.05 0.05 63 1005.7
20260505205555 19 266 11.3 27.4 0.00 0.05 0.05 65 1005.7
20260505205054 19 248 11.3 27.4 0.00 0.05 0.05 65 1005.8
20260505204601 19 232 8.0 24.1 0.00 0.05 0.05 65 1005.8
20260505204054 19 252 11.3 24.1 0.00 0.05 0.05 65 1005.9
20260505203554 18 232 12.9 22.5 0.00 0.05 0.05 65 1005.9
20260505203106 18 285 11.3 20.9 0.00 0.05 0.05 68 1006.0
20260505202654 18 250 6.4 14.5 0.00 0.05 0.05 68 1006.1
20260505202155 18 242 6.4 16.1 0.00 0.05 0.05 70 1006.1
20260505201552 18 251 6.4 16.1 0.00 0.05 0.05 70 1006.0
20260505201052 18 250 9.7 17.7 0.00 0.05 0.05 71 1006.1
20260505200556 18 242 9.7 19.3 0.00 0.05 0.05 71 1006.1
20260505200052 18 261 8.0 19.3 0.00 0.05 0.05 72 1006.2
20260505195553 18 234 8.0 19.3 0.00 0.05 0.05 73 1006.2
20260505195052 17 263 8.0 20.9 0.00 0.05 0.05 74 1006.2
20260505194604 17 219 12.9 20.9 0.00 0.05 0.05 75 1006.4
20260505194052 17 266 9.7 24.1 0.00 0.05 0.05 75 1006.4
20260505193549 17 244 11.3 24.1 0.00 0.05 0.05 75 1006.4
20260505193049 17 269 11.3 33.8 0.00 0.05 0.05 74 1006.4
20260505192549 17 233 16.1 37.0 0.00 0.05 0.05 73 1006.4
20260505192049 18 279 17.7 37.0 0.00 0.05 0.05 70 1006.4